Location: Unspecified
(19.4326°N, 99.1332°W)
Time: 11:39:34
(UTC-05:00)

Hubble Space Telescope - Visible Passes

Search period start: 21 May 2018 00:00
Search period end: 31 May 2018 00:00
Orbit: 537 x 541 km, 28.5° (Epoch: 20 May)

Date Brightness Start Highest point End Pass type
(mag) Time Alt. Az. Time Alt. Az. Time Alt. Az.
21 May 3.0 05:47:49 11° S 05:49:53 15° SSE 05:52:15 10° ESE visible
22 May 2.6 05:38:09 17° S 05:39:31 20° SSE 05:42:36 10° ESE visible
23 May 2.1 05:28:25 26° S 05:29:09 27° SSE 05:32:41 10° E visible
24 May 1.6 05:18:39 36° SSE 05:18:47 36° SSE 05:22:36 10° E visible
25 May 1.3 05:08:50 48° SE 05:08:50 48° SE 05:12:26 10° ENE visible
26 May 1.5 04:58:59 50° E 04:58:59 50° E 05:02:12 10° ENE visible
27 May 1.9 04:49:05 42° ENE 04:49:05 42° ENE 04:51:54 10° ENE visible
27 May 2.2 06:25:30 10° WNW 06:29:11 30° NNW 06:32:51 10° NE visible
28 May 2.4 04:39:10 33° NE 04:39:10 33° NE 04:41:34 10° ENE visible
28 May 2.4 06:15:24 10° WNW 06:18:57 27° N 06:22:30 10° NE visible
29 May 2.9 04:29:14 26° NE 04:29:14 26° NE 04:31:13 10° ENE visible
29 May 2.6 06:05:19 10° WNW 06:08:44 25° N 06:12:11 10° NE visible
30 May 3.2 04:19:18 21° NE 04:19:18 21° NE 04:20:50 10° NE visible
30 May 2.7 05:55:12 10° WNW 05:58:32 23° N 06:01:53 10° NE visible
